RH
22 20 18 16 14 12 10 10 11 14 16 17 18 18 17 18 18 18 18 18 18 18 19 19 20 16 12 7 4 4 4 4 8 12 11 9 5 2 3 3 3 6 10 13 14 14 13 13 12 11 11 11 12 15 19 25 35 51 67 64 62 70 63 60 69 58 56 69 77 82 74 71 77 72 71 74 69 71 76 75 74 77 73 71 74 72 79 87
25 23 20 18 16 14 12 10 10 11 13 16 17 18 18 17 17 18 18 18 18 18 18 19 20 16 11 7 4 3 4 8 14 13 9 7 4 2 4 3 4 5 7 10 11 12 12 11 11 11 10 11 13 14 21 28 36 54 66 60 62 70 58 51 60 58 55 61 74 83 73 67 70 70 72 77 81 78 79 80 77 79 77 77 80 78 82 86
25 24 22 19 16 15 13 12 10 9 10 13 16 17 17 17 16 17 17 18 18 18 18 19 20 16 12 8 4 4 8 15 17 12 9 9 6 3 2 3 4 4 5 7 8 9 10 11 10 10 10 12 14 15 18 26 39 46 49 56 60 59 51 44 46 47 43 52 72 81 74 70 66 67 72 77 85 83 81 83 82 82 83 85 86 83 85 88
22 22 21 19 17 15 13 12 11 10 9 10 14 16 17 17 16 16 16 18 17 18 17 18 20 16 13 8 4 5 14 21 16 11 12 12 11 6 3 2 3 4 5 6 7 7 7 9 8 8 11 13 13 15 17 23 35 40 42 51 51 47 43 35 35 39 41 50 64 74 79 75 68 70 72 73 86 90 81 74 72 75 79 86 90 88 88 91
21 21 20 18 16 14 13 12 11 10 9 9 11 14 16 16 16 15 16 17 17 17 17 18 20 17 13 10 5 5 17 24 14 11 14 16 16 12 7 3 2 4 5 6 6 5 6 7 7 9 12 14 15 15 16 17 23 36 41 39 38 43 41 33 33 38 45 55 63 75 78 72 69 72 71 71 81 83 70 63 63 65 70 77 85 91 92 93
20 20 19 18 16 13 11 10 10 10 9 8 10 12 15 16 16 15 15 16 17 17 17 18 19 17 14 11 6 5 16 21 13 11 14 17 19 17 11 6 4 3 3 5 4 4 7 7 9 13 13 15 17 16 15 13 16 29 35 28 28 34 38 38 37 38 48 59 69 75 69 67 72 72 71 69 69 65 57 57 60 63 66 69 79 88 92 94
19 19 18 17 14 11 10 10 9 9 9 8 8 11 14 16 16 15 15 16 17 17 17 18 19 18 15 11 8 6 11 14 12 12 15 18 20 19 14 11 6 3 2 3 4 7 8 9 12 13 14 16 17 17 15 11 13 23 30 30 30 36 40 40 38 42 54 61 65 68 65 69 74 71 72 70 64 60 57 57 59 65 70 72 79 85 88 93
18 18 17 14 13 13 14 14 11 8 8 8 8 10 12 15 16 15 15 15 16 17 17 17 19 18 16 13 9 7 7 12 16 15 18 19 20 19 15 13 8 3 3 2 5 7 9 11 13 12 14 16 15 17 13 11 19 21 21 22 26 37 43 41 39 48 63 65 63 67 68 69 71 73 76 69 61 60 60 60 61 67 75 76 78 83 88 93
17 16 14 13 15 19 20 19 16 10 7 7 7 9 11 14 16 15 15 15 16 17 17 17 19 18 17 14 12 12 10 15 19 17 19 19 18 18 14 14 9 4 2 3 5 7 11 12 13 13 14 16 15 14 11 13 21 17 12 11 19 35 42 41 42 54 66 66 65 69 72 72 72 76 75 64 58 61 62 63 65 69 76 80 80 83 86 89
15 14 13 15 20 22 22 21 19 14 8 6 7 8 10 13 15 16 15 15 16 16 17 17 18 18 17 14 13 19 18 18 20 17 18 19 18 15 13 14 10 5 2 3 5 8 13 12 13 12 12 15 12 12 11 11 15 12 10 12 24 41 45 46 47 57 66 63 66 70 75 78 73 78 76 61 59 63 63 67 70 69 75 81 84 86 85 84
14 12 12 18 22 22 22 21 21 19 12 6 6 8 9 12 14 16 15 15 16 16 17 17 18 18 18 16 14 19 22 20 19 18 19 19 17 14 14 12 6 4 2 3 5 9 12 12 13 12 12 13 10 12 10 10 11 8 12 12 30 50 49 53 57 60 65 61 66 69 74 80 79 84 75 58 61 64 63 70 74 72 74 79 84 88 88 86
13 11 12 19 24 25 24 23 21 20 17 9 6 8 9 12 14 16 15 14 15 16 17 17 18 18 18 18 12 14 22 21 18 19 20 19 17 15 17 15 10 9 7 7 8 10 12 12 13 12 12 11 11 12 8 11 10 9 18 14 36 62 55 57 63 62 61 59 65 64 64 75 86 88 69 57 66 66 64 71 77 77 78 80 84 88 89 88
14 12 12 20 26 27 27 26 24 21 19 12 6 7 9 11 13 15 15 14 15 16 17 17 17 18 18 16 10 10 19 21 17 18 19 17 16 16 18 18 16 16 14 11 11 13 13 13 14 12 12 11 11 11 9 11 7 11 23 25 42 55 47 54 63 65 63 60 64 57 55 64 75 78 66 64 67 67 72 75 79 82 83 85 86 88 89 89
17 15 12 20 27 29 29 29 27 22 19 15 7 7 9 11 13 15 15 14 15 16 17 17 17 18 18 15 9 8 14 19 15 15 16 14 15 17 17 18 17 17 15 12 13 14 14 14 15 12 11 11 9 9 10 12 17 19 21 39 53 39 38 53 62 70 64 64 65 53 57 58 53 59 63 68 67 66 77 82 82 84 85 87 87 89 89 88
19 21 14 18 24 26 27 27 28 25 20 16 9 7 9 10 13 14 15 14 14 16 16 17 17 18 20 15 10 10 12 15 12 12 13 12 14 17 17 17 16 17 16 14 14 14 15 15 15 13 10 10 9 12 14 17 34 33 15 32 48 33 42 52 57 72 63 68 73 51 61 66 52 54 57 68 71 64 74 82 84 84 84 87 86 88 86 85
19 26 22 21 23 23 25 25 28 26 20 16 10 7 9 11 14 14 15 14 14 16 16 18 18 19 22 17 12 12 11 12 11 11 12 10 12 16 17 18 18 18 17 16 15 14 15 14 13 11 9 9 13 17 18 22 39 40 19 22 32 27 37 38 45 69 64 73 80 59 63 62 53 63 66 74 74 65 73 81 82 83 83 84 84 85 84 82
18 28 30 28 26 25 25 25 27 25 20 17 10 7 9 10 13 14 14 14 14 16 16 17 18 19 18 15 14 14 13 13 11 11 12 10 10 13 16 16 15 16 16 17 17 16 15 12 10 10 10 11 17 17 16 25 33 34 27 22 25 24 25 25 31 55 66 70 73 72 73 58 51 70 78 82 78 69 73 78 80 82 81 81 81 81 82 81
17 26 31 29 25 21 20 21 23 23 19 16 9 7 10 11 13 14 13 14 16 18 18 18 18 19 15 12 15 15 14 15 13 12 12 10 10 11 12 12 10 11 13 16 16 16 15 11 10 12 15 13 17 19 18 25 23 20 24 19 21 23 21 23 22 42 67 68 67 76 80 69 62 72 80 83 82 75 73 75 77 80 79 78 77 77 78 79
16 24 29 26 20 16 14 16 19 19 18 14 8 7 9 11 13 14 13 15 17 17 18 17 16 17 15 12 14 15 13 13 14 14 12 12 10 10 11 10 11 10 11 16 15 14 12 11 12 14 16 13 13 17 15 19 17 13 18 14 16 18 16 19 14 29 59 68 73 75 73 68 60 69 83 84 84 81 75 76 77 79 80 78 77 76 75 75
16 25 28 21 14 11 13 16 17 18 16 11 7 10 16 22 25 23 22 21 19 17 17 16 14 15 16 15 14 15 14 11 13 14 12 12 10 10 11 10 12 12 13 18 15 11 10 13 17 14 14 13 11 13 11 13 14 12 14 13 14 14 13 14 9 25 52 60 68 70 66 65 55 66 85 83 87 89 82 81 81 79 79 77 77 76 75 74
17 25 24 15 11 12 13 15 16 16 13 9 9 15 25 32 32 27 23 21 18 18 19 18 18 18 18 17 16 16 15 12 11 12 12 12 11 11 12 12 14 17 19 17 13 13 12 13 18 15 13 12 11 13 11 11 12 11 13 13 14 14 15 12 9 34 56 50 59 69 67 67 57 62 83 90 93 93 86 83 81 80 78 77 76 74 74 74
17 26 20 11 13 15 15 15 15 13 9 8 10 13 20 27 27 22 18 18 17 17 18 19 21 20 18 17 17 18 17 15 10 10 11 10 11 11 12 16 18 20 21 17 17 22 20 17 17 14 13 13 11 12 11 12 12 12 13 13 15 17 16 15 20 48 63 47 54 71 67 64 60 61 80 94 91 86 84 81 77 77 77 77 74 73 73 72
18 25 15 11 18 15 14 16 12 9 7 9 13 14 17 21 22 19 17 20 21 17 16 19 20 19 18 16 16 17 17 17 13 9 9 9 11 12 12 17 19 19 19 17 19 23 23 20 18 14 13 13 13 13 12 13 11 13 14 13 16 14 12 17 25 48 62 47 52 70 65 61 65 63 72 85 83 78 79 79 77 76 74 72 69 69 71 71
19 24 12 15 24 14 10 11 9 9 10 17 22 22 22 18 18 19 18 24 29 22 16 17 19 18 18 16 15 15 15 15 15 10 8 9 12 13 13 16 18 19 19 19 20 21 20 18 15 15 14 14 14 14 14 13 14 15 14 13 14 13 11 13 17 37 54 50 51 59 53 57 67 58 58 78 84 77 77 79 79 76 73 70 69 70 69 68
19 22 12 19 27 18 14 16 18 19 19 27 28 25 23 18 19 21 20 26 28 24 19 17 19 17 16 16 15 14 14 13 14 11 8 9 11 13 13 13 15 18 20 20 19 19 19 15 13 15 15 15 14 15 15 13 15 16 14 13 11 11 12 10 15 30 39 40 43 41 37 54 69 55 55 80 91 84 79 82 82 77 75 73 72 72 69 67
19 21 12 19 26 21 23 25 27 27 26 30 27 24 23 21 22 20 27 39 30 20 22 19 18 17 14 16 15 14 16 14 12 11 10 9 10 12 13 14 14 16 20 19 18 20 18 14 14 14 15 15 14 15 16 14 15 15 14 13 11 11 11 12 19 22 23 26 29 32 34 46 55 49 57 80 91 90 85 84 84 77 75 75 72 70 69 68
20 21 12 18 25 22 25 26 26 29 28 29 28 26 22 22 24 19 32 51 34 16 20 19 18 17 14 15 15 15 18 15 10 11 11 9 11 10 12 17 14 12 16 17 18 20 17 14 15 14 14 15 15 15 15 14 14 15 14 11 11 11 8 13 19 16 20 22 24 38 38 33 42 47 61 80 86 88 88 86 86 79 74 73 70 70 68 66
19 22 12 16 24 23 25 26 27 29 27 29 29 25 22 23 25 24 36 45 29 16 17 17 16 14 12 15 15 13 14 12 10 12 11 10 11 10 11 16 15 14 14 14 16 18 15 13 13 15 14 15 16 15 14 13 12 13 14 11 10 11 11 13 13 16 23 18 25 47 38 28 49 61 70 83 84 84 82 78 84 81 73 72 69 68 67 65
17 22 15 14 23 25 24 25 27 26 26 28 26 25 26 23 22 30 41 36 22 17 16 15 16 14 12 15 14 12 11 11 11 12 11 11 11 10 12 13 13 14 13 12 16 14 13 13 12 14 14 16 18 17 14 11 10 11 11 11 13 19 25 23 16 18 24 18 25 43 33 27 48 64 71 68 63 72 75 71 78 77 69 69 69 66 65 65
16 23 17 12 22 25 23 25 25 23 24 24 25 27 25 25 35 44 41 30 21 17 15 14 15 13 13 15 14 13 13 12 11 11 11 11 11 10 11 10 10 15 18 19 17 14 13 11 14 15 14 16 15 15 14 10 9 10 10 12 14 21 34 45 45 31 23 27 32 34 30 26 32 52 67 56 46 59 64 60 65 68 68 69 67 65 64 63
15 23 19 14 19 23 23 24 23 23 22 21 26 27 22 32 57 59 37 23 22 18 14 15 16 15 15 17 16 14 14 13 11 12 12 13 13 11 11 14 15 20 32 30 18 18 18 12 15 16 12 13 12 12 12 10 12 12 15 15 10 20 33 44 55 39 23 31 34 31 30 25 23 35 51 53 54 63 62 57 58 60 62 64 65 66 64 62
14 22 23 17 16 21 21 20 23 24 21 23 24 24 32 42 49 49 36 24 23 20 16 16 16 17 17 16 16 15 14 14 12 14 16 16 16 15 15 20 21 21 32 32 19 20 21 14 16 15 12 12 11 14 14 14 16 12 19 22 17 31 35 29 40 38 28 27 25 27 25 23 32 34 36 43 48 56 59 53 51 52 52 55 60 62 63 64
13 21 25 19 17 19 18 20 22 19 20 27 23 27 52 57 37 37 43 32 23 18 15 15 16 18 18 15 16 16 13 13 14 14 16 16 17 18 19 22 20 16 22 25 21 25 25 20 19 17 17 15 12 17 16 16 18 10 17 24 22 32 30 28 42 35 25 22 19 25 23 25 40 36 35 47 47 53 61 53 49 51 50 48 52 57 61 64
12 18 23 24 23 21 21 22 18 17 22 26 26 35 51 51 38 41 44 35 26 19 14 15 16 17 17 16 17 16 13 13 14 15 17 17 17 20 22 20 17 17 20 22 23 27 26 22 20 17 19 17 15 17 13 14 18 11 14 16 17 26 17 21 38 25 18 23 21 26 25 27 36 30 36 49 46 52 61 59 59 56 51 47 47 55 57 59
12 17 22 25 25 23 25 21 16 20 21 24 42 53 47 43 43 43 38 32 26 19 15 15 17 18 17 19 19 14 12 13 15 17 18 17 17 20 21 17 18 20 21 22 24 26 24 21 20 17 17 19 19 17 13 18 21 16 19 19 20 25 16 20 35 26 23 28 29 32 31 34 37 33 46 53 43 47 49 49 56 58 58 53 46 51 54 55
14 17 21 23 23 25 27 21 17 20 21 32 51 53 43 40 38 34 31 26 18 17 21 23 21 22 22 24 24 17 12 12 16 19 16 16 19 22 21 18 18 19 20 24 26 25 25 23 21 20 20 20 20 18 15 19 23 23 25 23 21 20 14 18 32 35 33 29 31 36 40 52 48 30 44 61 55 54 51 46 50 57 63 61 50 47 49 51
18 18 20 22 22 26 26 21 19 18 23 38 47 44 42 37 29 31 30 21 16 20 30 32 24 22 25 28 29 24 18 13 15 18 17 19 21 22 24 22 18 19 21 22 20 20 23 23 24 23 22 19 16 17 18 16 19 25 26 20 16 18 19 19 28 43 44 34 36 43 46 64 68 49 55 73 71 66 65 60 54 50 53 57 56 53 52 53
19 20 21 23 23 25 28 24 18 20 28 41 51 56 52 35 23 26 23 16 18 23 29 31 24 21 25 28 28 26 21 15 15 19 22 25 24 22 25 24 20 21 22 19 20 26 25 22 26 26 23 24 20 19 24 21 17 19 19 16 17 23 29 29 31 36 35 33 40 47 48 60 75 79 82 86 83 78 78 76 65 54 55 58 59 59 61 63
18 22 23 24 25 26 27 23 20 26 30 36 49 54 44 32 25 20 16 17 20 23 26 26 23 23 25 25 26 25 23 19 19 24 29 29 26 23 23 23 21 20 21 21 24 33 32 25 27 28 24 27 28 27 29 27 22 20 18 18 21 26 27 27 31 30 26 34 44 46 49 57 69 84 91 90 88 88 90 91 82 76 81 81 73 68 65 64
19 24 25 28 28 24 22 21 24 30 27 31 47 48 33 28 22 13 14 17 17 20 23 22 23 25 24 23 24 24 25 26 27 29 32 30 26 25 21 21 25 24 22 23 26 36 40 31 29 33 31 29 29 29 28 26 26 23 24 27 26 26 25 23 28 31 27 38 52 49 47 59 70 79 87 89 89 91 95 97 95 93 97 94 83 78 76 70
20 25 30 31 29 24 21 22 27 32 33 34 41 41 31 23 17 13 15 14 14 17 17 20 24 23 23 24 22 23 28 30 31 32 32 27 27 29 22 18 26 27 24 27 27 28 34 35 34 34 31 29 28 26 24 28 33 32 36 43 32 22 28 32 32 34 32 35 47 53 54 66 79 80 83 89 89 89 92 94 96 96 95 94 87 82 82 81
23 30 33 32 30 26 22 29 36 38 39 34 28 27 26 20 16 15 15 13 14 15 14 18 21 20 22 23 20 26 33 32 31 32 30 25 24 26 21 17 25 28 26 29 27 26 35 44 41 33 30 29 28 30 27 27 38 46 51 57 48 34 36 41 38 34 33 34 43 57 66 72 80 81 82 88 87 85 89 91 93 94 93 93 90 82 78 80
28 32 33 31 31 27 26 35 41 38 36 29 20 19 18 16 17 16 16 17 16 16 17 18 19 19 19 20 21 27 32 30 30 30 30 27 23 20 18 18 25 32 31 27 24 26 36 45 42 44 53 45 30 31 30 25 38 56 64 68 68 61 48 37 36 33 30 36 43 50 61 69 76 81 81 83 85 84 88 92 92 94 96 95 93 86 76 73
30 32 33 35 33 29 30 32 30 36 43 31 17 18 17 14 18 18 17 20 18 19 21 18 18 18 17 22 28 29 29 30 29 28 28 28 23 18 17 16 21 32 36 33 29 24 27 39 44 48 56 48 37 38 35 32 43 56 69 74 73 78 64 35 32 37 30 38 46 42 58 79 81 79 79 78 82 85 87 91 93 94 98 98 97 91 79 71
29 28 29 34 35 34 33 28 23 31 41 33 20 21 22 17 17 18 18 20 20 21 23 20 19 20 21 27 32 31 31 30 28 29 30 29 25 20 17 15 18 27 34 37 36 30 33 45 50 47 42 39 44 45 34 37 53 61 73 80 75 83 75 39 27 30 25 48 73 66 72 91 83 74 77 75 77 84 86 88 92 92 95 97 96 93 86 79
30 33 33 34 34 34 32 26 27 27 29 38 34 22 21 21 17 16 17 19 20 21 23 23 23 26 28 32 35 35 35 34 33 35 34 30 28 24 18 16 17 19 23 23 23 36 49 50 57 70 60 46 54 56 44 54 76 80 82 86 81 83 80 60 57 62 50 61 93 94 87 93 87 79 80 75 73 82 85 86 91 91 90 91 91 90 86 81
34 44 49 43 33 33 30 27 37 35 25 35 35 21 22 25 20 19 19 19 20 20 23 25 27 30 31 33 35 34 39 43 40 38 35 31 33 29 19 17 16 14 17 12 12 39 54 39 42 60 51 41 55 64 59 66 80 85 86 89 88 85 85 83 90 96 78 65 82 95 91 91 93 88 84 80 79 85 87 88 91 90 88 88 87 85 81 76
38 45 52 48 41 44 41 34 44 43 29 33 33 24 26 26 23 25 23 20 20 21 25 28 28 30 30 34 37 35 41 45 40 41 40 32 35 34 23 20 18 15 17 14 16 41 54 36 29 36 34 40 55 61 63 67 70 76 82 87 89 88 89 92 90 90 86 80 86 91 88 90 96 93 87 86 89 91 91 90 89 86 85 85 83 80 80 78
42 47 50 45 43 47 42 34 35 30 30 47 46 29 24 26 25 24 23 25 26 24 27 31 29 27 30 42 49 43 40 37 32 40 42 31 33 37 30 25 22 16 18 19 20 32 41 37 35 38 41 50 57 58 62 65 66 71 75 79 85 88 89 91 87 82 84 89 90 86 85 93 97 93 90 90 91 92 90 90 90 89 87 84 81 80 79 79
52 56 54 45 37 35 29 25 25 22 28 45 42 26 24 27 24 22 23 27 29 27 27 29 29 28 30 43 48 38 34 35 32 35 37 33 35 37 32 27 24 22 23 24 22 23 25 33 47 54 49 47 57 66 66 64 67 72 73 74 80 85 87 89 89 86 86 90 88 84 90 98 92 89 93 91 88 90 92 91 91 92 89 83 79 79 77 77
59 60 57 52 43 34 28 27 29 32 34 36 34 30 30 26 21 24 24 22 25 27 25 25 30 34 35 40 37 27 27 34 32 28 28 29 28 28 28 26 24 26 28 27 25 26 28 32 47 62 53 38 46 63 69 68 67 70 74 75 78 85 91 93 92 90 93 97 94 90 96 100 92 89 92 88 84 87 93 94 95 95 90 81 77 79 78 77
57 58 57 54 46 36 35 37 37 38 35 31 32 35 32 25 22 26 27 23 22 23 24 25 28 33 37 36 32 28 25 26 25 22 22 24 22 22 22 22 24 25 28 30 25 31 43 38 35 51 51 36 39 56 65 66 66 73 78 74 73 80 88 93 91 88 90 96 97 96 97 96 92 92 94 90 86 86 89 93 94 91 85 78 75 76 76 77
Wind_Speed
12 12 12 11 11 11 10 9 9 8 8 8 8 7 7 8 8 8 8 8 9 9 9 10 11 11 9 7 6 6 7 7 6 6 6 2 4 5 8 11 12 14 16 16 16 14 12 11 9 8 9 8 8 8 7 5 5 3 2 2 2 2 3 4 6 5 2 2 4 8 14 8 4 8 7 6 6 10 14 7 8 12 7 6 8 12 24 25
12 12 12 12 12 11 11 10 9 9 8 8 8 8 7 8 8 8 8 8 9 9 9 9 10 10 8 7 6 6 6 5 4 3 1 3 3 6 9 11 12 13 13 14 15 13 13 10 9 8 7 7 7 6 4 3 6 4 2 1 4 5 5 5 6 7 3 3 7 10 14 10 7 12 10 5 5 11 11 4 8 9 6 8 10 17 26 25
13 13 13 12 12 12 12 11 10 9 8 8 8 8 7 7 8 8 8 8 8 8 9 9 10 10 8 7 6 5 4 3 3 1 6 7 6 6 9 10 11 11 12 13 13 12 11 9 9 7 6 7 5 4 3 3 6 5 3 1 6 7 5 7 6 9 6 5 9 8 11 10 7 13 12 6 5 8 8 7 9 11 12 14 16 23 28 26
14 13 13 13 13 13 13 12 11 10 8 8 8 8 7 7 8 8 7 7 8 8 8 9 10 9 8 7 5 4 2 1 3 5 8 9 9 7 7 9 9 10 11 11 11 10 8 8 8 5 5 5 3 4 3 4 6 4 5 4 5 2 3 10 9 9 7 6 9 9 8 6 7 12 11 9 6 3 9 15 15 15 19 20 23 27 29 28
15 14 14 14 14 14 14 13 12 10 9 8 8 8 8 7 8 7 7 7 7 8 8 9 9 9 8 6 5 3 1 2 4 7 7 8 9 7 5 6 8 9 10 10 10 8 7 7 5 2 3 3 2 3 3 4 6 3 3 7 8 2 3 9 7 8 7 6 9 9 7 6 9 10 12 13 8 6 13 20 19 18 20 21 26 29 29 30
16 15 15 14 15 15 15 14 13 11 10 8 8 8 8 8 8 8 7 7 7 7 7 8 8 8 7 6 5 2 2 1 6 8 6 5 6 5 4 3 6 8 9 10 9 7 8 5 1 0 1 2 3 3 7 10 5 3 4 8 11 11 6 7 5 7 7 7 9 9 6 8 10 7 12 16 13 10 9 13 18 18 19 20 25 29 29 30
17 16 15 15 15 15 15 14 13 12 10 9 8 8 8 8 8 8 7 6 7 7 7 8 8 8 7 6 5 2 4 2 7 7 4 3 2 2 1 1 4 7 8 9 9 9 8 5 1 0 1 2 3 3 9 12 2 5 4 5 8 9 9 4 3 6 5 6 8 9 8 9 11 5 9 17 20 15 5 6 14 18 20 22 26 29 29 30
17 16 15 15 15 15 15 14 12 11 10 9 8 8 8 8 8 8 7 7 7 6 7 7 7 7 6 6 5 3 5 4 7 4 1 2 0 1 1 1 3 7 8 9 9 9 6 3 0 2 1 2 4 4 8 10 2 3 4 7 7 4 7 4 2 5 4 3 5 8 7 8 12 4 4 14 19 18 11 6 11 19 23 25 26 29 30 30
18 16 15 15 14 14 13 13 12 11 10 9 8 8 8 9 9 8 7 7 6 6 7 7 7 7 6 6 6 4 5 6 6 4 2 1 1 2 2 2 2 5 9 9 10 9 5 2 1 2 2 5 5 6 6 5 3 3 8 10 8 6 3 3 2 6 5 3 5 7 3 3 7 2 5 13 14 14 13 9 14 21 25 27 27 29 30 30
19 16 14 13 13 13 13 13 12 11 10 9 9 9 9 9 9 8 8 7 7 6 6 7 7 6 6 5 4 1 7 9 6 5 3 1 1 2 1 2 3 5 8 9 9 10 6 2 4 5 5 5 3 7 6 1 4 11 11 10 7 6 3 4 5 8 7 4 6 6 3 2 3 2 5 9 10 13 12 12 18 23 26 28 28 28 29 29
20 17 13 11 11 12 13 13 12 11 10 9 8 9 9 9 9 8 8 7 7 6 6 6 7 7 6 6 5 3 8 10 7 6 3 1 1 1 1 1 2 5 7 7 8 7 4 2 7 6 4 3 5 10 7 1 8 13 8 8 7 4 1 5 6 8 7 3 7 5 2 1 3 3 7 8 12 14 14 17 22 24 26 28 28 28 28 28
21 18 13 10 10 11 12 13 13 12 10 9 8 8 9 9 9 8 8 7 7 6 6 6 7 7 7 8 9 5 10 9 7 7 4 1 3 4 3 3 5 5 3 4 5 4 2 5 8 6 4 6 7 7 6 8 11 8 2 5 7 6 3 2 4 7 6 2 6 3 3 4 4 6 8 9 15 14 15 21 23 25 26 27 28 28 28 28
22 17 12 10 10 11 12 13 14 13 10 9 8 8 9 9 8 8 7 7 7 6 6 6 7 8 7 8 7 7 11 10 9 8 6 3 5 6 5 4 4 3 4 5 4 2 3 6 8 8 8 7 4 5 10 13 8 4 2 3 4 7 5 3 2 8 6 1 6 5 3 6 7 9 6 10 18 17 18 23 24 25 25 26 27 27 28 28
22 17 11 9 11 12 13 14 15 14 11 9 7 8 8 8 8 8 7 7 7 7 6 7 7 7 8 6 4 9 12 11 10 8 7 6 7 7 5 4 3 2 2 3 2 1 3 6 8 9 9 6 6 8 11 9 4 2 3 3 3 4 5 6 1 9 6 2 7 7 1 8 9 8 9 13 20 20 20 23 24 25 25 26 27 27 28 28
21 16 12 10 11 13 14 15 15 14 11 9 7 7 7 8 8 7 7 7 7 7 6 7 7 7 9 6 5 10 12 12 10 7 7 6 7 6 4 3 1 0 1 1 1 3 5 8 9 7 7 7 7 6 6 5 4 3 3 3 4 1 5 8 2 9 6 3 7 6 1 8 9 6 10 18 22 22 21 22 24 25 26 26 26 27 28 28
20 16 13 13 13 14 15 15 15 15 12 9 7 7 7 7 7 7 7 6 7 7 6 7 6 5 6 4 4 8 11 12 9 7 8 7 7 6 3 2 1 2 3 3 4 6 7 8 6 5 5 5 2 3 4 5 4 4 2 3 4 2 4 7 3 6 5 3 4 4 2 5 5 4 7 20 24 23 21 21 24 24 25 26 27 27 27 28
19 16 15 16 17 16 16 15 14 14 11 7 6 6 6 6 6 6 6 6 6 6 6 7 7 6 4 2 2 5 7 8 8 7 7 7 7 6 4 3 2 4 6 7 8 8 7 5 3 3 2 2 2 4 4 3 3 4 3 1 3 3 3 5 6 3 5 4 3 4 4 8 5 3 7 18 23 22 21 21 24 25 25 25 26 28 28 28
19 16 17 18 19 18 17 15 13 12 9 6 4 5 5 4 5 5 6 7 5 4 5 8 6 4 3 3 1 0 2 5 8 8 7 7 7 6 6 5 4 6 7 5 7 5 5 3 1 1 3 4 3 5 2 3 2 1 2 3 4 3 3 5 6 2 6 3 4 5 5 15 11 3 9 15 20 21 21 22 24 25 26 25 25 27 28 29
19 17 18 19 19 18 15 12 11 9 6 4 3 3 3 2 3 5 6 7 6 3 2 4 5 2 2 4 2 2 2 4 6 8 9 9 8 8 8 7 7 8 4 1 2 1 2 0 3 2 3 3 2 5 6 7 3 2 1 2 4 5 6 7 8 5 7 3 5 8 8 14 13 3 7 13 18 19 18 19 21 23 26 26 25 26 28 29
19 17 18 20 18 15 12 9 7 5 3 2 2 3 2 1 1 2 5 9 10 8 6 5 7 7 5 3 2 2 2 3 5 7 10 10 9 8 8 7 6 5 1 2 1 1 2 1 2 5 6 7 7 7 7 5 1 1 2 3 5 5 7 9 7 4 7 4 5 10 10 13 12 3 6 13 16 15 15 16 19 23 25 27 27 26 27 28
20 18 19 19 15 11 8 5 3 1 1 3 4 4 2 1 1 2 5 8 8 9 11 11 12 14 10 5 3 2 2 3 5 6 8 11 10 7 6 5 1 2 2 2 2 1 3 0 5 9 9 8 7 6 5 4 2 3 3 5 6 4 8 11 6 2 5 5 4 5 7 13 12 4 5 11 11 12 18 18 20 25 25 26 28 28 28 27
19 18 18 16 12 9 6 3 1 2 3 5 6 4 4 3 1 3 6 6 7 6 9 11 13 15 11 7 5 3 1 3 5 7 8 11 11 8 5 3 3 2 2 1 1 3 3 4 10 9 7 6 5 5 5 5 5 4 2 2 5 4 5 9 6 4 2 5 3 1 5 10 11 6 5 11 11 12 22 25 24 26 26 26 28 29 29 28
18 17 17 12 10 9 5 4 3 3 4 6 5 4 4 2 2 4 6 6 7 6 6 9 12 12 9 6 6 7 5 3 5 8 10 12 13 10 7 5 3 1 1 1 3 0 2 6 10 6 6 5 4 4 6 3 3 4 3 2 5 4 1 5 5 5 0 3 1 1 3 7 7 5 3 9 13 11 17 23 22 23 27 29 30 30 30 29
16 16 14 9 10 9 5 6 5 4 6 7 7 4 1 2 3 5 5 4 5 5 4 6 8 10 9 4 4 8 7 5 5 8 13 15 12 8 6 4 4 1 3 3 6 3 5 11 9 2 1 4 4 3 7 4 3 4 6 6 6 6 4 6 5 3 2 1 2 3 3 6 5 4 4 2 7 6 9 16 18 19 23 26 27 27 28 30
14 14 11 7 9 8 7 8 7 8 8 9 7 3 1 2 2 3 3 1 3 4 1 3 5 7 7 4 5 7 4 6 8 8 13 17 14 7 3 4 4 2 5 3 5 3 8 11 6 2 3 1 2 3 5 7 3 3 5 10 10 9 7 6 4 2 4 4 3 2 3 5 5 4 4 3 2 4 5 10 15 19 20 21 24 25 26 28
13 13 9 6 7 7 6 6 7 7 7 8 6 2 2 0 1 3 2 3 2 3 1 3 3 4 7 6 7 6 0 4 8 9 12 16 15 7 2 3 2 2 4 3 2 2 5 5 2 2 2 5 3 3 5 7 4 3 5 9 10 8 6 5 4 1 1 3 4 2 3 4 6 5 4 4 2 4 4 6 10 16 18 21 23 24 25 27
11 11 8 4 4 5 5 5 6 6 6 6 6 2 1 1 2 3 2 5 2 2 1 3 2 5 7 5 9 8 1 2 4 8 13 15 14 8 3 2 0 2 3 2 2 2 3 4 4 3 3 4 2 4 5 8 7 3 5 5 6 7 7 5 5 3 3 3 3 2 4 1 5 5 5 4 3 4 5 5 7 12 18 21 23 24 25 27
9 9 7 3 2 4 5 5 5 5 5 6 5 2 0 2 4 3 3 4 1 2 1 3 3 5 5 5 12 8 1 1 2 3 11 13 12 7 4 4 4 4 2 3 2 5 2 3 3 0 2 2 4 5 6 8 5 6 5 4 5 5 4 2 5 3 2 1 4 5 2 1 4 6 5 5 3 5 7 6 5 12 19 22 23 24 25 26
8 8 6 2 0 2 3 4 4 4 4 4 3 1 0 3 5 2 4 2 2 2 0 3 3 4 4 6 10 7 1 2 3 2 7 11 11 5 1 5 6 5 3 3 4 6 4 6 5 3 2 4 6 6 6 9 4 4 2 2 0 2 3 4 4 3 2 2 4 6 3 3 4 5 4 4 2 3 7 5 4 10 17 21 23 24 24 25
7 6 5 3 3 3 1 0 1 1 1 2 1 1 2 3 2 4 2 0 0 1 0 2 3 4 5 5 2 4 2 1 2 4 5 6 10 5 1 2 3 3 1 2 3 6 9 11 5 3 4 6 6 4 4 7 4 4 3 3 5 5 5 4 2 4 4 1 5 8 5 3 1 5 2 1 0 2 3 5 5 4 9 16 21 23 24 24
7 4 5 3 5 6 4 3 3 2 3 3 2 3 3 3 2 6 1 1 1 2 1 1 1 3 6 5 1 1 1 2 2 4 3 3 2 2 3 2 2 3 4 5 4 6 8 7 3 2 6 5 2 1 1 1 1 3 3 4 5 5 5 5 4 4 4 2 6 5 2 5 2 3 4 3 3 2 2 4 6 6 5 8 15 20 23 23
6 4 5 3 6 8 7 6 5 5 4 3 2 2 1 2 2 2 1 1 1 2 1 1 1 2 4 3 0 1 1 1 2 3 2 2 2 1 1 2 1 3 4 3 3 6 5 3 4 6 4 1 3 2 4 4 4 5 4 5 5 4 5 4 4 3 1 3 5 1 4 4 3 4 5 7 6 6 5 4 6 8 7 4 7 14 19 21
6 5 4 4 5 7 8 8 8 7 4 2 1 1 3 5 1 1 2 2 1 2 1 1 2 4 5 3 2 2 1 0 1 3 2 2 3 1 3 4 5 2 1 2 1 5 3 4 8 7 4 6 5 5 3 4 4 5 3 3 3 2 3 3 3 2 2 4 5 2 2 1 3 2 5 8 8 10 9 4 5 6 5 4 1 6 12 17
5 4 4 4 4 6 8 9 10 7 3 2 1 1 4 3 1 2 2 3 2 1 2 2 2 5 5 2 2 2 2 1 0 3 2 3 4 2 5 3 3 4 2 1 1 1 2 3 6 4 4 8 6 4 1 2 2 1 4 4 2 3 1 3 3 1 3 4 4 4 1 1 1 2 5 8 8 11 13 11 10 8 7 6 3 2 7 12
4 3 4 4 4 5 6 8 7 4 3 2 1 3 3 0 2 2 2 4 2 1 2 2 4 5 3 1 2 2 2 1 1 4 3 2 2 1 3 3 2 3 4 1 2 0 2 2 5 4 4 4 5 4 0 5 3 2 3 4 2 2 3 2 2 3 2 2 3 4 1 2 1 2 5 12 11 14 20 17 14 10 6 5 3 1 4 8
2 2 4 3 3 5 5 5 4 4 3 1 4 4 1 2 2 2 2 3 1 2 2 4 5 5 3 4 3 2 0 1 2 3 3 1 2 1 2 3 3 3 5 3 2 0 2 1 5 7 5 6 5 4 6 6 1 1 3 2 4 3 5 2 1 1 3 3 1 2 2 4 3 1 7 16 14 16 20 19 16 11 5 4 3 2 3 5
2 2 4 3 4 5 4 3 4 5 3 2 4 1 2 2 2 4 3 4 2 2 5 4 2 2 1 2 3 4 2 1 2 3 2 1 1 3 5 4 2 1 3 3 2 2 2 1 5 5 4 6 6 5 8 10 4 3 3 3 3 2 3 2 1 3 4 2 2 3 2 4 3 1 9 17 16 16 16 17 18 13 8 8 6 5 5 5
3 2 2 2 3 4 4 2 5 6 2 3 2 2 1 1 1 2 6 5 1 3 5 4 0 1 1 0 2 4 2 0 1 2 2 2 1 2 4 4 2 5 3 1 1 1 2 1 5 3 2 6 7 4 5 11 8 4 1 2 2 3 2 2 2 1 2 1 2 4 2 2 2 3 9 13 14 15 15 15 15 14 15 17 15 13 11 9
3 2 3 3 2 1 1 2 5 3 2 3 1 1 0 2 4 6 8 4 2 5 4 2 1 2 2 2 1 3 2 1 1 2 2 2 1 2 5 3 4 9 8 3 3 0 2 2 3 5 3 4 6 5 3 7 8 4 4 4 3 3 2 1 2 2 0 0 1 2 3 1 1 4 8 10 11 12 13 13 11 14 20 23 22 20 16 12
2 3 4 3 3 3 1 4 4 1 2 1 2 2 2 2 4 12 13 6 3 5 3 0 3 3 2 2 1 1 3 3 2 2 2 2 0 1 5 5 3 7 8 5 4 1 2 3 1 5 6 4 3 3 2 3 5 4 4 5 4 2 1 1 1 1 2 1 2 0 2 2 2 4 7 10 11 10 11 11 9 14 21 24 24 23 20 16
2 3 4 2 4 3 2 3 1 1 2 0 1 2 3 1 4 11 15 12 8 7 5 3 4 3 1 2 3 2 3 4 4 3 3 3 2 1 6 9 4 5 4 5 4 2 1 2 0 3 5 4 1 3 2 3 5 4 4 2 2 2 2 3 2 3 1 2 2 3 2 3 3 4 5 8 8 9 12 11 10 16 23 25 26 25 23 21
4 3 2 4 7 4 2 0 1 2 2 0 0 1 2 2 4 9 12 12 9 8 8 5 3 3 3 2 2 2 3 3 4 3 3 2 2 2 8 16 9 3 2 2 2 2 2 3 3 1 2 1 4 6 3 6 8 7 5 4 2 1 3 4 1 3 2 1 1 3 1 2 3 5 6 8 9 10 15 16 15 20 24 25 28 28 27 24
6 5 4 7 8 4 1 3 3 2 1 1 2 4 5 4 4 6 9 9 6 5 7 5 2 3 4 2 2 3 4 3 4 3 2 0 2 2 11 18 12 3 3 2 2 1 2 3 3 2 4 4 5 6 6 7 7 5 4 5 4 2 1 3 4 2 1 2 1 2 1 2 3 8 10 13 15 15 19 21 21 23 26 29 31 30 28 25
8 8 6 8 8 3 2 2 2 4 4 2 5 6 8 8 7 6 6 6 6 3 3 3 3 4 3 2 3 2 2 3 2 3 2 1 2 5 12 18 14 6 4 1 2 0 1 1 3 3 4 6 6 6 6 6 5 3 3 6 5 4 3 1 1 2 1 3 1 3 3 2 3 9 12 16 18 18 21 25 24 24 27 30 31 31 29 27
6 6 5 5 7 3 2 2 0 1 3 2 5 4 5 6 7 9 7 6 8 6 3 2 3 4 3 3 4 4 3 4 2 2 3 2 3 6 12 16 14 9 7 4 2 1 2 2 2 3 1 2 1 2 3 3 3 2 3 7 8 7 6 2 0 2 1 4 4 3 3 2 6 11 13 15 16 17 21 26 26 25 26 28 30 31 30 29
3 3 2 2 2 2 2 4 4 1 3 1 4 3 4 2 2 8 9 7 8 9 7 4 3 3 5 6 5 5 6 5 3 3 2 2 3 4 9 13 15 16 14 11 7 2 4 3 2 5 5 5 5 3 2 1 3 2 4 7 8 7 6 4 3 2 1 1 4 3 2 4 10 14 13 13 14 14 18 24 26 26 28 28 29 29 30 30
3 1 1 2 2 1 2 6 8 3 3 2 2 2 4 2 1 5 7 5 5 6 6 6 6 4 3 4 3 3 5 5 4 4 2 2 3 4 7 9 15 21 17 12 11 4 4 3 2 4 4 2 5 4 4 5 5 3 3 6 8 7 8 9 5 3 0 3 3 4 6 8 9 11 12 13 13 12 15 22 25 26 28 27 27 28 30 31
4 3 3 3 1 0 1 4 9 6 3 4 3 1 3 4 3 3 3 3 5 6 4 5 7 5 2 2 4 1 4 4 4 2 0 2 3 4 7 5 9 19 17 11 10 6 6 2 1 4 6 4 6 6 6 8 6 4 5 6 7 8 9 9 6 5 4 5 2 3 6 8 7 10 12 13 12 11 15 21 24 26 28 28 29 30 31 31
7 6 5 6 4 1 2 5 6 5 6 5 4 3 2 4 4 2 2 2 4 6 5 3 2 4 4 2 5 3 1 1 1 2 1 3 4 3 5 3 5 15 15 8 6 5 4 1 1 4 5 5 4 3 4 8 7 6 7 6 5 7 8 7 6 6 6 6 3 2 4 6 5 7 9 13 16 14 13 16 21 26 30 30 30 31 31 31
8 6 4 4 5 5 7 6 4 4 6 5 3 3 2 3 3 2 3 4 2 4 5 4 3 1 2 3 5 3 3 4 3 2 3 1 3 1 1 1 2 9 11 4 3 4 3 1 0 5 5 3 3 3 4 6 8 8 7 7 6 6 6 6 6 5 4 4 3 3 4 3 3 7 9 13 18 18 15 15 19 25 30 33 32 30 30 30
9 8 5 4 4 8 8 6 4 3 4 4 2 1 1 2 2 2 4 6 4 2 3 2 5 3 2 5 5 2 4 6 6 6 6 4 1 2 1 1 2 3 6 3 3 4 3 2 1 4 5 0 2 2 2 3 7 9 8 9 8 6 4 4 5 5 3 3 4 5 5 2 6 10 11 12 15 16 14 16 18 22 29 34 36 33 30 29
11 8 6 4 3 7 7 4 4 4 2 2 2 0 1 0 1 2 4 5 7 7 4 2 4 3 3 4 3 4 7 7 8 9 7 6 5 4 4 4 1 1 2 1 2 2 2 4 1 2 3 2 4 3 2 2 6 5 4 4 4 4 4 3 4 5 4 2 2 4 2 2 5 8 9 9 11 12 13 13 13 16 24 30 33 33 30 28
Wind_Direction
329 327 325 325 324 323 320 316 309 303 298 294 295 296 293 294 298 305 309 311 312 315 317 316 320 321 319 313 304 296 292 289 291 289 288 269 202 198 188 190 191 201 208 212 221 228 237 247 262 281 292 308 321 318 317 275 193 156 119 108 250 222 216 201 187 200 168 184 186 174 175 160 157 176 167 160 164 157 161 169 168 182 219 221 211 186 174 176
328 325 322 321 319 318 318 316 312 305 298 291 289 288 290 290 291 299 303 307 309 312 315 315 321 324 322 317 310 304 298 289 287 302 4 86 130 166 174 185 191 198 203 209 218 222 231 241 251 265 286 308 312 304 308 241 192 171 132 136 231 213 213 205 178 187 186 182 173 174 182 176 175 174 168 164 156 156 161 160 161 171 178 184 188 177 177 178
327 323 320 317 315 314 313 314 313 308 301 291 285 283 285 285 285 291 296 304 307 310 312 313 322 325 326 320 318 317 303 284 261 105 85 82 89 136 165 181 191 199 205 210 216 222 228 237 251 267 305 316 301 280 290 221 208 206 171 209 238 217 241 255 215 201 210 176 157 163 185 188 187 177 172 172 164 170 180 169 161 164 159 164 173 175 178 179
327 322 319 315 313 311 310 311 310 309 303 292 284 278 278 280 280 284 289 298 303 307 310 313 321 326 326 321 326 327 316 288 202 138 93 78 74 93 146 173 186 198 207 216 219 221 227 236 254 286 319 304 273 267 265 205 211 205 173 220 257 201 247 264 241 219 219 179 164 155 163 196 198 184 179 162 147 225 216 195 189 184 173 167 170 175 179 179
327 322 318 315 312 311 310 309 308 308 302 293 283 274 272 273 275 278 283 292 298 304 308 311 319 325 326 323 326 319 68 70 179 149 102 78 66 70 109 164 184 197 208 218 219 214 219 229 249 311 322 284 292 306 279 246 230 215 221 252 275 254 233 283 265 220 212 174 158 144 146 193 184 186 189 170 165 229 225 211 207 199 189 180 175 176 178 180
328 322 318 315 312 310 310 309 308 305 300 291 280 270 265 265 269 272 275 284 292 299 303 308 316 323 326 323 325 273 166 100 168 152 114 86 61 62 88 143 181 199 208 211 209 196 204 213 211 250 307 285 304 293 289 302 265 217 278 264 268 249 229 317 301 214 207 164 154 157 176 178 164 192 199 192 210 223 232 224 213 206 200 191 181 179 180 182
329 323 318 315 312 310 310 311 308 302 297 287 275 266 259 259 262 264 268 274 283 293 298 304 312 322 327 321 324 252 241 223 159 148 117 106 55 43 71 111 184 196 199 198 193 183 196 203 176 295 4 314 309 264 290 319 295 182 284 283 289 259 223 301 305 209 202 172 172 170 175 177 173 197 199 207 226 226 244 250 216 204 193 188 183 183 185 185
333 325 320 316 314 313 314 314 310 302 294 283 271 261 254 253 254 259 262 264 274 285 292 301 309 318 326 318 326 294 253 213 165 160 111 134 197 301 309 288 195 192 191 190 186 182 196 199 197 340 357 277 303 292 303 335 9 157 307 298 309 285 215 255 279 194 187 170 177 172 177 192 188 192 206 220 233 227 235 253 209 193 185 186 187 187 188 187
336 329 322 318 317 318 319 318 314 307 296 282 269 257 250 248 250 254 256 258 265 277 287 297 304 313 322 314 323 307 224 180 164 168 135 142 230 259 261 251 205 187 183 185 185 183 178 112 28 336 287 276 299 307 318 347 328 310 318 309 309 308 246 230 200 176 189 187 169 179 217 220 193 227 272 241 236 224 229 228 195 186 183 186 188 189 190 191
338 332 325 320 319 321 322 322 318 312 301 285 269 256 247 244 247 249 252 255 258 270 282 289 298 307 313 313 323 284 180 162 151 149 133 129 230 241 251 241 213 185 179 183 184 183 167 80 354 338 302 285 289 302 309 136 314 313 306 314 330 329 291 196 177 175 185 203 188 191 246 295 172 199 270 246 218 207 208 193 187 185 185 187 188 191 193 196
339 335 327 320 321 323 325 327 324 316 305 291 271 256 248 244 244 247 250 251 253 265 274 284 297 299 306 305 291 207 166 162 157 151 133 65 116 141 99 63 136 158 174 181 175 174 162 7 342 341 310 299 313 306 307 330 321 311 299 313 327 358 84 164 155 172 174 206 206 186 254 307 109 189 248 224 191 195 190 178 183 185 187 189 189 192 195 200
340 336 327 319 322 326 329 332 330 321 309 295 273 256 248 243 243 246 248 250 251 259 269 282 291 293 305 294 271 208 172 175 169 163 159 92 128 148 147 106 97 106 123 138 134 119 46 337 332 333 322 318 322 322 319 323 319 302 326 326 307 2 29 190 136 164 168 215 202 158 330 276 180 215 242 203 182 185 180 176 181 185 188 189 190 193 197 202
341 337 327 317 321 326 330 334 333 325 311 296 275 255 249 244 243 244 246 248 250 255 264 274 283 293 303 292 264 199 188 195 189 177 168 151 152 157 160 143 121 111 102 107 107 66 336 322 326 321 320 313 297 316 310 313 320 294 4 20 315 357 350 281 106 151 160 225 186 146 322 272 235 225 213 181 180 176 170 175 180 183 186 189 191 195 198 202
341 339 328 313 315 320 324 328 330 326 313 296 276 254 248 244 241 243 246 249 251 255 259 268 283 296 294 284 216 195 199 201 205 195 169 161 166 166 163 158 150 148 130 124 128 322 307 321 329 318 315 306 290 307 312 323 357 325 339 40 17 356 300 298 78 150 151 218 184 141 257 269 271 242 201 185 183 176 169 173 180 184 186 190 193 197 200 203
340 340 333 316 310 311 313 317 321 322 313 295 275 252 244 242 239 242 246 248 251 255 261 269 281 298 294 279 199 198 205 207 214 205 179 164 165 172 166 168 174 239 281 216 250 301 307 316 320 313 308 304 309 322 327 341 3 10 356 323 342 13 278 304 269 170 163 203 188 151 224 267 287 284 205 188 184 181 175 175 182 186 188 191 194 198 203 207
337 336 333 324 316 310 308 308 311 315 310 294 277 252 236 234 236 243 248 249 254 256 261 269 274 296 298 275 206 210 216 220 219 208 200 179 171 178 169 202 261 306 302 299 294 299 310 320 319 309 308 304 329 54 25 356 346 6 41 272 294 331 307 316 304 200 179 133 191 209 279 264 286 329 191 182 184 183 178 181 185 187 190 193 197 200 205 209
334 329 326 322 318 312 307 303 303 307 304 289 273 251 234 231 237 245 248 249 253 255 263 265 271 287 276 215 192 215 221 231 226 216 207 188 184 180 177 217 259 292 298 293 285 290 300 316 307 281 336 21 79 80 34 353 317 323 15 322 275 286 299 304 310 256 164 139 200 226 267 256 245 70 156 179 184 181 180 187 189 189 191 194 200 203 207 210
333 325 322 319 317 313 307 300 297 299 296 281 263 244 231 230 241 251 254 255 251 256 273 257 253 291 251 193 172 221 230 242 229 221 212 194 191 188 203 234 264 286 302 292 271 270 270 288 19 325 3 13 40 80 93 232 224 282 332 335 309 292 259 264 284 221 148 156 209 193 244 257 254 147 156 183 186 186 187 190 192 193 194 196 201 204 208 211
335 328 324 322 320 317 311 301 294 292 286 268 242 224 212 223 255 257 255 250 236 221 279 233 202 183 196 201 247 333 312 239 214 209 205 192 190 199 218 245 270 284 308 322 266 228 196 306 31 351 314 293 223 145 189 212 173 142 218 262 288 294 278 256 263 224 164 154 213 203 222 252 258 204 159 187 190 193 195 192 194 197 198 200 202 205 208 212
337 332 329 327 325 322 317 307 296 284 266 225 183 167 166 166 228 268 265 255 246 243 257 248 234 256 272 252 255 348 7 184 186 194 192 188 191 200 219 243 269 286 287 156 228 60 104 45 285 236 235 241 224 194 210 217 165 296 278 283 272 275 284 273 273 235 166 155 230 218 223 252 258 226 164 185 188 195 198 192 197 200 201 203 204 207 210 214
339 336 334 334 333 332 328 319 309 253 182 158 153 137 121 108 97 355 307 279 268 257 252 252 256 263 266 260 260 334 19 151 167 182 188 192 191 191 213 225 227 290 274 175 167 49 77 170 251 234 229 240 234 199 206 231 240 264 261 293 293 247 265 277 288 288 167 172 264 228 224 257 259 239 164 174 177 199 200 193 198 203 204 206 207 209 211 215
340 340 341 344 351 354 353 3 61 137 144 151 151 109 49 33 56 6 344 308 292 275 244 239 248 255 255 254 257 262 254 174 167 182 191 193 193 195 198 168 128 202 283 86 110 4 24 250 251 241 216 223 238 193 187 217 220 232 220 298 294 250 268 289 314 345 161 179 292 286 213 257 264 248 194 178 185 210 208 202 202 202 203 207 210 211 212 213
342 344 347 356 11 13 24 48 83 132 139 136 119 75 51 30 283 313 327 303 292 287 248 232 238 248 252 254 237 211 206 192 179 190 195 192 191 198 186 143 105 156 306 133 163 6 346 249 247 227 182 196 231 181 164 207 225 204 179 179 268 260 276 286 309 347 351 172 67 89 229 273 284 270 231 190 198 214 214 210 210 206 206 211 214 214 213 212
343 347 352 9 21 23 51 66 77 105 113 102 80 66 49 264 262 291 297 283 296 301 263 230 233 246 248 242 208 202 202 216 213 193 194 194 185 189 192 150 100 212 259 189 157 178 250 260 266 281 215 215 235 174 147 177 255 225 199 196 242 256 226 230 270 330 344 338 122 97 342 307 307 302 317 245 207 214 209 205 209 212 213 216 217 216 216 216
345 349 355 17 27 38 70 75 80 97 100 83 65 47 340 280 269 307 309 338 311 307 311 201 222 237 224 195 189 198 200 233 239 206 196 199 187 169 174 160 136 243 255 180 140 209 259 268 275 312 335 102 206 244 169 171 226 290 224 205 220 246 243 228 250 6 28 341 253 145 19 302 309 314 300 323 229 211 206 197 203 208 210 214 217 217 217 218
345 349 356 19 31 44 65 71 78 92 96 71 55 56 28 13 355 335 352 46 344 290 23 157 192 196 193 201 203 191 84 264 242 218 204 205 199 175 126 170 160 249 227 170 150 233 263 288 43 70 29 83 87 282 219 157 121 322 246 204 207 228 234 213 196 129 61 289 263 134 132 258 310 324 300 318 295 243 239 217 212 207 204 209 214 218 219 218
344 347 353 11 25 34 42 59 72 81 87 60 48 62 53 30 358 332 359 42 11 278 107 160 169 172 187 213 193 166 82 266 219 212 207 203 204 196 191 225 291 243 199 104 357 282 254 308 354 44 66 84 45 288 226 146 117 257 241 167 172 210 225 200 156 164 228 238 324 30 129 194 301 287 296 329 335 307 280 241 228 215 209 210 214 218 220 220
339 342 346 351 28 46 50 64 72 69 72 55 44 53 67 334 325 329 65 64 287 287 120 180 175 172 183 191 188 174 86 169 114 215 209 200 203 198 216 221 176 210 209 104 276 273 215 265 278 196 21 325 259 250 194 146 147 248 233 175 184 210 224 160 140 189 252 36 320 304 149 140 278 277 318 359 15 330 296 265 235 222 218 213 213 218 221 223
332 335 336 298 197 91 67 70 74 66 63 50 43 48 298 311 317 11 85 81 267 292 139 174 175 184 168 157 193 213 348 45 60 148 189 192 201 193 224 222 180 195 232 138 226 260 254 254 234 178 281 263 243 247 181 155 193 265 234 207 320 54 54 67 117 152 52 50 266 263 198 155 272 289 337 16 22 307 287 284 254 232 229 220 215 219 221 223
325 324 326 271 213 193 174 38 25 38 14 6 8 314 327 312 344 65 71 47 189 298 259 170 191 176 141 118 200 254 264 335 58 130 140 164 197 203 15 238 159 144 302 354 253 259 284 285 263 173 220 223 228 261 183 173 235 322 11 2 1 21 34 38 69 100 71 336 257 253 221 135 333 290 288 104 183 275 295 316 320 281 246 226 221 222 221 223
316 304 312 269 218 215 231 274 301 307 291 279 275 305 330 321 61 84 112 225 106 305 346 144 211 117 121 127 143 268 184 319 17 117 106 66 170 225 25 12 26 46 8 350 309 298 325 325 317 263 247 228 195 2 63 159 341 16 48 37 3 342 9 18 359 43 66 292 276 266 202 107 87 281 292 295 289 279 257 299 318 329 309 241 223 225 224 225
309 288 299 263 223 227 243 268 287 294 282 254 263 298 349 11 37 81 252 304 342 261 225 166 190 98 104 100 109 229 120 328 360 80 119 71 56 39 141 186 175 20 345 318 326 336 335 311 330 321 288 350 73 59 2 2 32 47 66 57 33 352 2 4 337 8 53 276 282 284 102 105 216 243 311 324 325 313 275 270 305 319 331 303 224 226 227 226
297 274 287 266 243 247 255 268 281 284 268 217 248 299 82 72 46 255 277 315 263 216 164 115 103 104 108 75 339 281 61 285 296 47 91 89 48 325 265 211 157 112 297 244 329 352 333 307 338 349 335 356 47 79 6 329 12 34 69 74 73 67 24 323 301 332 315 282 268 253 105 87 274 293 352 341 334 333 337 10 6 349 4 19 245 227 227 227
293 269 283 278 270 268 262 267 274 266 230 199 201 80 74 64 299 286 296 261 255 336 45 82 84 73 93 129 248 214 87 337 298 71 44 39 41 338 307 296 163 145 133 125 201 38 45 319 337 2 333 344 25 79 160 168 63 28 153 122 111 129 128 251 247 258 289 282 281 315 17 115 27 59 21 353 340 352 10 40 52 40 40 42 41 223 226 230
297 264 279 290 287 280 269 269 265 233 200 222 55 74 81 41 269 294 268 253 281 3 6 49 80 63 44 296 275 195 155 262 83 78 42 55 91 278 294 292 253 142 118 117 229 110 73 257 285 304 304 347 8 337 339 114 69 305 136 85 11 179 171 206 188 182 210 293 314 337 331 208 228 159 24 7 0 359 3 14 32 38 35 31 31 304 241 237
307 266 283 304 292 282 285 279 240 190 194 184 55 56 110 231 229 199 241 276 325 115 89 37 55 60 353 321 334 339 136 144 107 73 24 81 115 358 293 257 259 167 141 138 200 244 52 269 293 324 354 33 33 2 29 64 74 311 51 7 273 180 154 177 316 5 66 72 327 351 337 313 331 127 8 4 2 355 353 352 356 5 6 345 350 341 288 259
354 317 296 299 278 269 282 278 198 182 198 104 70 55 226 241 206 199 289 320 313 105 90 58 31 61 359 317 332 331 338 24 110 97 34 8 35 342 321 288 278 209 192 163 165 189 128 271 303 339 9 8 23 55 35 28 54 100 48 296 274 82 93 98 34 360 34 69 303 359 27 348 14 82 344 355 354 346 343 335 331 337 343 325 316 321 305 283
4 343 320 316 275 258 270 258 193 187 170 81 52 287 226 309 262 263 316 327 356 51 70 82 121 120 96 71 313 319 334 303 48 89 85 24 10 4 344 304 343 13 337 187 137 75 86 314 299 308 267 315 354 51 21 0 18 76 113 294 60 73 14 8 60 31 10 18 308 340 25 45 37 329 331 344 342 333 333 333 329 335 349 349 347 345 330 308
14 46 41 33 55 57 278 204 189 179 70 62 27 276 232 273 303 352 354 340 66 60 62 77 72 77 78 91 290 327 20 106 89 85 95 42 25 44 19 326 315 354 3 84 124 318 60 64 289 293 289 313 359 38 23 337 343 3 13 9 45 115 153 359 70 132 50 294 242 333 2 28 318 325 332 333 330 329 333 338 338 345 1 12 14 9 358 339
42 86 50 41 89 81 127 184 189 128 42 58 191 225 297 281 326 9 23 37 60 56 63 23 54 64 36 45 81 356 37 61 72 82 85 38 52 53 21 14 311 318 344 49 88 88 55 59 291 296 328 10 31 22 27 345 333 354 33 28 351 341 54 55 17 92 118 128 166 218 317 280 295 337 346 342 337 337 340 338 339 354 10 21 23 21 17 7
82 84 44 86 124 110 138 178 231 64 87 212 189 246 297 351 360 3 26 53 61 56 68 87 74 70 23 33 38 21 50 49 37 62 82 36 50 147 354 355 313 273 335 32 45 39 68 76 55 318 353 36 20 322 357 71 62 62 67 41 312 302 73 81 336 316 83 111 154 161 225 269 324 349 350 351 342 342 352 348 349 4 12 17 21 25 24 18
93 79 59 135 146 154 150 318 323 98 115 259 203 285 318 39 22 359 18 41 52 48 48 55 66 55 49 49 29 38 70 54 13 47 99 29 68 174 333 344 335 279 55 57 315 315 124 101 71 330 335 341 276 297 10 84 82 79 63 18 351 356 86 106 206 283 333 359 143 118 146 253 343 2 0 359 353 359 8 7 9 12 12 14 18 22 24 23
86 87 109 142 159 172 58 356 348 13 1 344 53 47 47 53 26 12 22 27 33 39 38 32 18 45 52 48 45 54 62 55 24 46 132 232 34 345 342 358 8 17 51 55 293 345 88 80 45 318 315 332 302 316 21 53 59 62 37 5 5 333 263 165 174 208 277 295 184 116 206 219 8 6 7 6 5 14 17 16 16 13 10 13 17 19 21 21
92 88 103 142 172 190 48 53 355 342 324 14 51 45 55 57 36 32 35 19 20 40 56 29 6 21 33 46 67 62 50 74 43 16 75 130 356 340 355 13 28 36 26 358 241 333 61 83 63 38 350 348 348 342 358 14 26 51 14 347 350 344 327 267 93 69 258 282 88 131 221 227 27 7 6 7 7 11 13 14 17 14 11 13 15 18 20 19
100 86 85 134 182 204 40 70 110 303 290 25 47 24 37 53 43 50 63 49 39 53 72 25 356 10 11 35 62 39 29 79 100 0 33 27 313 329 356 13 26 26 5 344 254 174 100 110 113 98 72 289 293 281 281 325 354 11 357 352 357 358 356 339 27 75 278 303 30 93 234 296 22 7 3 5 3 2 2 5 10 11 13 15 16 18 20 20
102 87 56 69 164 196 2 13 30 124 208 86 62 31 30 59 37 45 62 60 41 51 60 34 355 25 28 29 40 16 9 36 70 81 58 348 298 310 347 6 19 15 7 12 25 85 106 68 107 128 139 189 193 206 225 116 59 17 342 357 8 359 6 59 82 59 213 278 39 37 323 23 22 4 358 359 359 357 354 357 359 1 7 13 16 16 17 20
81 74 28 38 53 16 19 20 18 22 187 134 97 21 17 32 336 25 48 57 43 56 65 35 20 41 39 33 50 14 353 7 33 66 87 317 273 288 338 6 18 13 11 15 17 45 106 48 39 102 83 148 153 110 72 89 88 67 18 16 18 11 32 64 58 353 291 130 72 17 22 41 21 357 351 350 355 354 345 348 350 352 359 6 10 13 14 16
77 91 71 75 86 349 35 355 349 4 69 79 88 72 17 34 52 36 34 51 45 44 59 37 21 22 12 76 108 50 349 11 19 15 298 334 323 324 347 3 14 11 12 14 16 55 114 71 55 94 53 65 118 111 99 100 91 68 54 39 28 31 48 65 52 20 63 97 71 4 32 42 14 353 348 341 344 347 340 342 344 346 352 0 6 9 10 10
78 92 73 74 96 97 352 320 323 23 50 42 57 67 41 48 52 15 345 46 29 16 46 88 7 349 353 54 111 114 24 96 32 318 274 2 1 357 0 348 347 2 8 13 15 47 106 59 47 99 73 57 75 91 111 106 94 66 42 29 37 52 59 69 57 47 77 88 50 6 51 57 19 345 332 324 330 341 345 348 349 347 348 353 1 5 4 4
61 68 54 72 72 27 15 9 14 58 42 28 50 49 42 70 63 25 27 51 36 347 31 105 189 243 28 59 90 117 194 169 152 223 192 79 2 336 10 318 292 346 360 5 347 13 78 132 20 96 86 26 11 46 87 102 100 82 45 19 25 43 50 54 42 35 59 61 26 27 62 55 346 328 326 330 339 346 348 348 349 350 350 350 353 357 360 1
46 46 40 76 52 7 9 14 21 55 39 20 41 43 47 95 118 91 47 42 72 86 35 119 178 177 54 53 75 133 218 188 183 217 208 184 199 214 232 232 224 320 349 1 337 354 65 95 14 74 88 240 247 156 125 94 85 72 40 12 8 19 38 41 30 25 24 4 0 24 43 12 320 328 333 340 347 347 342 336 335 345 353 352 348 347 352 358
36 37 38 77 63 9 6 359 10 56 79 344 335 333 46 43 216 107 81 41 55 68 47 74 147 139 47 39 31 320 295 265 251 263 254 226 227 233 248 266 268 254 267 287 17 2 89 109 84 66 95 210 237 201 183 40 46 34 357 349 355 14 43 48 29 21 4 344 19 29 21 271 293 318 327 335 338 335 331 327 327 348 2 357 347 342 344 352